COSMOS 2499 DEB

Satellite information

Favourite Embed

Satellite Type and Status

DEBRISIN ORBIT

Key statistics

Satellite COSMOS 2499 DEB at a glance.

Uptime

4180

Days in orbit

Revolutions

≈ 12.9

Per day

Orbit

LEO

Low Earth Orbit

Inclination

82.4

Latest

Satellite identification and parameters

Extended collection of information and parameters for COSMOS 2499 DEB.

Object identification

Identified? True

Debris? True

Object name: COSMOS 2499 DEB

International designator: 2014-028BK

Object number (NORAD): 56576

Object ID (CCSDS): 56576

Country: COMMONWEALTH OF INDEPENDENT STATES (CIS)

Current information (Y/N): Y

RCS size: SMALL

Orbital parameters

Period: 111.779 minutes

Inclination: 82.381 deg

SMA: 7686.594 km

Apoapsis: 1552.569 km

Periapsis: 1064.349 km

RAAN: 43.0681 deg

Eccentricy: 0.0317579

Argument of periapsis: 176.6456 deg

Mean anomaly: 183.6887 deg

Mean motion: 12.88255061 rev/day

Mean motion (dot): 0.00004301 rev/day2

B* drag term: 0.013481 1/REarth

Two-line elements (TLE)

Creation date: Oct. 31, 2025, 6:26 p.m.

Reference frame: TEME

Reference center: EARTH

Epoch: Oct. 31, 2025, 1:07 p.m. UTC

TLE line 0: 0 COSMOS 2499 DEB

TLE line 1: 1 56576U 14028BK 25304.54669350 .00004301 00000-0 13481-1 0 9992

TLE line 2: 2 56576 82.3810 43.0681 0317579 176.6456 183.6887 12.88255061130353

Live tracking on map

Real-time ground track for satellite COSMOS 2499 DEB.

In-orbit conjunctions

A list of the most updated potential collisions computed for object COSMOS 2499 DEB.

Target Orbit TCA Probability of collision Miss distance Type
COSMOS 1797 LEO 2025-06-18 03:54:42 0.0005473243 251.0 (m) PAYLOAD

Associated space launch

Classified payload for Russia

COSMOS 2499 DEB was lifted into orbit during the mission ‘Rokot / Briz-KM | 3x Strela-3M (Kosmos 2496, Kosmos 2497, Kosmos 2498) & Kosmos 2499’, on board a Rokot/Briz-KM space rocket.

The launch took place on May 23, 2014, 5:27 a.m. from 133/3 (133L).

For more information about the launch, click the button.

Launch to space Rokot / Briz-KM | 3x Strela-3M (Kosmos 2496, Kosmos 2497, Kosmos 2498) & Kosmos 2499
Rokot / Briz-KM | 3x Strela-3M (Kosmos 2496, Kosmos 2497, Kosmos 2498) & Kosmos 2499

Agency: N/A

Status: Launch Successful

Launch date: May 23, 2014, 5:27 a.m. UTC

Rocket: Rokot/Briz-KM

Launch pad: 133/3 (133L)

Location: Plesetsk Cosmodrome, Russian Federation

...

Latest news about this satellite

There are no fresh news available about this satellite. Check back as we update our databases every day.


Newsletter sign-up

Weekly statistics, charts and insights to help you stay on top of the space industry.